ONEWEB-0022, 45135

Orbit data source: Space-Track

ONEWEB-0022, 45135 is a payload satellite owned by One Web (UK) in LEO that was launched on Thu, 06 Feb 2020 UTC via a SOYUZ-2-1B launch vehicle from the Tyuratam Missile And Space Complex (TTMTR). Payload-class satellites include a variety of spacecraft equipped with specific instruments for various scientific and technological missions. These include communications satellites like Starlink; space stations such as the ISS; scientific satellites like the Hubble; Earth observation satellites from companies like Planet Labs, Umbra, and HawkEye 360; GPS; miniature CubeSats for education and research; and military/defense satellites.

Loading next visibility...
Identifier
45135, 2020-008E
Orbit
LEO
Last TLE update
20 hours ago
Origin
Manufacturer
One Web
Mission
Non-operational Commercial Communications
Bus & Motor
ARROW, Unknown motor
Mass
148 kg wet, ~140 kg dry
Launch date (UTC)
2020-02-06 (5 years ago)
Launch vehicle
SOYUZ-2-1B
Launch site
Tyuratam Missile And Space Complex (TTMTR)
Object type
Payload
Rocket body
Debris
Shape & HBR
Trap Box + 2 Pan, 5 m
Radar Cross Section
2.957 m², Large (>1 m²)

Expand to show TLE details & history

TLE from 20 hours ago
0 ONEWEB-0022
1 45135U 20008E   25128.52351912 -.00000465  00000-0 -13663-2 0  9992
2 45135  87.8795 116.9846 0001952  99.7717 260.3631 13.10453542255355
Epoch: 2025-05-08T12:33Z
Definitive object data (Epoch: 2025-05-08T12:33:52.051Z)
Latitude
-0.00004°
Longitude
61.92493°
Altitude
1,224.541 km
Speed
7.242 km/s
True Right ascension
07h 47m 56s
True Declination
0° 00' 00"
Sunlit
Object was in daylight at TLE epoch
Visualization TLE readout
Latitude
49.96373°
Longitude
64.26845°
Altitude
1,228.39 km
Speed
7.245 km/s
Apparent Right ascension
06h 32m 33s
Apparent Declination
10° 43' 14"
Sunlit
Object is in daylight
Visualization observer readout
Local Sidereal Time
17:07:45
Azimuth
334.061° NNW
Elevation
-35.678°
Doppler factor
1
Orbital elements
Apogee altitude
1,220.008 km
Perigee altitude
1,217.042 km
Semi-major axis
7,596.662 km
Eccentricity
0.0001952
Inclination
87.8795°
RAAN
116.9846°
Arg. of periapsis
99.7717°
True anomaly
260.34105°
Mean anomaly
260.3631°
Eccentric anomaly
260.35207°
Mean motion
3.278 °/min
BSTAR
-0.0013663
Orbital period
109.82 mins
Loading maneuver chart data...
Loading SW <> Apogee altitude chart data...
Loading historical data...
Loading historical data...
Loading historical data...
Loading historical data...
Loading historical data...
Loading historical data...
Loading historical data...

ONEWEB-0022 Visibility forecast

Observer location: undefined°, undefined°

Span
Click to sort rows by Start time (UTC) header in descending order
Start Az.
Max El. time (UTC)
Max El. Az.
Max El.
End time (UTC)
End Az.
12 mins2025-05-09 11:10:30.357Z5.874° NNE2025-05-09 11:15:30.357Z59.964° ENE43.383°2025-05-09 11:22:30.357Z172.105° S
8 mins2025-05-09 13:01:30.357Z319.887° NNW2025-05-09 13:05:30.357Z282.049° WNW18.512°2025-05-09 13:09:30.357Z246.975° WSW
4 mins2025-05-09 21:44:30.357Z85.381° E2025-05-09 21:46:30.357Z68.315° E12.76°2025-05-09 21:48:30.357Z51.509° ENE
12 mins2025-05-09 23:29:30.357Z173.3° S2025-05-09 23:35:30.357Z41.274° NE44.326°2025-05-09 23:41:30.357Z2.99° NNE
7 mins2025-05-10 01:22:30.357Z256.534° W2025-05-10 01:25:30.357Z283.307° WNW16.399°2025-05-10 01:29:30.357Z319.276° NNW
|